Time,TemperatureF,DewpointF,PressureIn,WindDirection,WindDirectionDegrees,WindSpeedMPH,WindSpeedGustMPH,Humidity,HourlyPrecipIn,Conditions,Clouds,dailyrainin,SoftwareType,DateUTC
2014-03-12 00:07:00,53.1,21.0,29.93,NNE,18,12.0,-999.0,28,-99.99,,,0.00,weatherlink.com 1.10,2014-03-12 07:07:00,
2014-03-12 00:22:00,53.2,20.0,29.93,NNE,18,15.0,-999.0,27,-99.99,,,0.00,weatherlink.com 1.10,2014-03-12 07:22:00,
2014-03-12 00:37:00,53.2,15.0,29.93,NNE,14,12.0,-999.0,22,-99.99,,,0.00,weatherlink.com 1.10,2014-03-12 07:37:00,
2014-03-12 00:52:00,52.8,16.0,29.93,NE,38,10.0,-999.0,23,-99.99,,,0.00,weatherlink.com 1.10,2014-03-12 07:52:00,
2014-03-12 01:07:00,53.1,14.0,29.92,ENE,59,8.0,-999.0,21,-99.99,,,0.00,weatherlink.com 1.10,2014-03-12 08:07:00,
2014-03-12 01:22:00,52.9,13.0,29.91,NNE,21,9.0,-999.0,20,-99.99,,,0.00,weatherlink.com 1.10,2014-03-12 08:22:00,
2014-03-12 01:37:00,52.6,13.0,29.91,ENE,61,13.0,-999.0,21,-99.99,,,0.00,weatherlink.com 1.10,2014-03-12 08:37:00,
2014-03-12 01:52:00,52.0,15.0,29.90,ENE,61,13.0,-999.0,23,-99.99,,,0.00,weatherlink.com 1.10,2014-03-12 08:52:00,
2014-03-12 02:07:00,52.0,13.0,29.91,NNE,17,11.0,-999.0,21,-99.99,,,0.00,weatherlink.com 1.10,2014-03-12 09:07:00,
2014-03-12 02:22:00,51.9,15.0,29.90,NE,41,26.0,-999.0,23,-99.99,,,0.00,weatherlink.com 1.10,2014-03-12 09:22:00,
2014-03-12 02:37:00,51.1,15.0,29.90,NE,52,13.0,-999.0,24,-99.99,,,0.00,weatherlink.com 1.10,2014-03-12 09:37:00,
2014-03-12 02:52:00,50.5,17.0,29.90,NNE,20,12.0,-999.0,26,-99.99,,,0.00,weatherlink.com 1.10,2014-03-12 09:52:00,
2014-03-12 03:07:00,50.4,17.0,29.89,North,0,20.0,-999.0,26,-99.99,,,0.00,weatherlink.com 1.10,2014-03-12 10:07:00,
2014-03-12 03:22:00,50.1,17.0,29.89,North,10,20.0,-999.0,27,-99.99,,,0.00,weatherlink.com 1.10,2014-03-12 10:22:00,
2014-03-12 03:37:00,50.1,16.0,29.89,NE,44,11.0,-999.0,26,-99.99,,,0.00,weatherlink.com 1.10,2014-03-12 10:37:00,
2014-03-12 03:52:00,50.1,17.0,29.91,NNE,14,8.0,-999.0,27,-99.99,,,0.00,weatherlink.com 1.10,2014-03-12 10:52:00,
2014-03-12 04:07:00,49.8,17.0,29.92,NNE,24,5.0,-999.0,27,-99.99,,,0.00,weatherlink.com 1.10,2014-03-12 11:07:00,
2014-03-12 04:23:00,49.2,17.0,29.93,NE,37,12.0,-999.0,28,-99.99,,,0.00,weatherlink.com 1.10,2014-03-12 11:23:00,
2014-03-12 04:38:00,49.1,16.0,29.93,NNE,16,6.0,-999.0,27,-99.99,,,0.00,weatherlink.com 1.10,2014-03-12 11:38:00,
2014-03-12 04:53:00,48.8,16.0,29.92,NNE,13,6.0,-999.0,27,-99.99,,,0.00,weatherlink.com 1.10,2014-03-12 11:53:00,
2014-03-12 05:08:00,48.9,17.0,29.92,North,0,6.0,-999.0,28,-99.99,,,0.00,weatherlink.com 1.10,2014-03-12 12:08:00,
2014-03-12 05:23:00,48.8,18.0,29.93,NNE,32,7.0,-999.0,29,-99.99,,,0.00,weatherlink.com 1.10,2014-03-12 12:23:00,
2014-03-12 05:38:00,48.3,19.0,29.94,NNE,20,3.0,-999.0,31,-99.99,,,0.00,weatherlink.com 1.10,2014-03-12 12:38:00,
2014-03-12 05:53:00,48.8,20.0,29.94,NNE,25,4.0,-999.0,32,-99.99,,,0.00,weatherlink.com 1.10,2014-03-12 12:53:00,
2014-03-12 06:08:00,49.2,22.0,29.94,NNE,27,5.0,-999.0,34,-99.99,,,0.00,weatherlink.com 1.10,2014-03-12 13:08:00,
2014-03-12 06:23:00,49.8,22.0,29.95,NNE,14,6.0,-999.0,34,-99.99,,,0.00,weatherlink.com 1.10,2014-03-12 13:23:00,
2014-03-12 06:38:00,49.5,24.0,29.95,NNE,13,3.0,-999.0,37,-99.99,,,0.00,weatherlink.com 1.10,2014-03-12 13:38:00,
2014-03-12 06:53:00,49.5,25.0,29.95,NNE,24,3.0,-999.0,38,-99.99,,,0.00,weatherlink.com 1.10,2014-03-12 13:53:00,
2014-03-12 07:08:00,49.5,25.0,29.95,ENE,62,7.0,-999.0,39,-99.99,,,0.00,weatherlink.com 1.10,2014-03-12 14:08:00,
2014-03-12 07:23:00,49.9,27.0,29.95,NE,40,10.0,-999.0,41,-99.99,,,0.00,weatherlink.com 1.10,2014-03-12 14:23:00,
2014-03-12 07:38:00,49.6,27.0,29.96,NE,54,8.0,-999.0,41,-99.99,,,0.00,weatherlink.com 1.10,2014-03-12 14:38:00,
2014-03-12 07:53:00,49.9,27.0,29.96,NE,37,6.0,-999.0,42,-99.99,,,0.00,weatherlink.com 1.10,2014-03-12 14:53:00,
2014-03-12 08:08:00,50.4,30.0,29.97,NNE,27,11.0,-999.0,45,-99.99,,,0.00,weatherlink.com 1.10,2014-03-12 15:08:00,
2014-03-12 08:23:00,51.0,32.0,29.96,NNE,24,8.0,-999.0,48,-99.99,,,0.00,weatherlink.com 1.10,2014-03-12 15:23:00,
2014-03-12 08:38:00,52.2,31.0,29.96,NE,47,9.0,-999.0,44,-99.99,,,0.00,weatherlink.com 1.10,2014-03-12 15:38:00,
2014-03-12 08:53:00,52.3,32.0,29.96,NE,45,0.0,-999.0,47,-99.99,,,0.00,weatherlink.com 1.10,2014-03-12 15:53:00,
2014-03-12 09:08:00,53.1,33.0,29.97,NNE,28,0.0,-999.0,46,-99.99,,,0.00,weatherlink.com 1.10,2014-03-12 16:08:00,
2014-03-12 09:23:00,53.6,32.0,29.98,NE,42,0.0,-999.0,44,-99.99,,,0.00,weatherlink.com 1.10,2014-03-12 16:23:00,
2014-03-12 09:38:00,54.2,33.0,29.98,NE,38,0.0,-999.0,45,-99.99,,,0.00,weatherlink.com 1.10,2014-03-12 16:38:00,
2014-03-12 09:53:00,54.8,32.0,29.99,NE,45,0.0,-999.0,43,-99.99,,,0.00,weatherlink.com 1.10,2014-03-12 16:53:00,
2014-03-12 10:08:00,55.3,32.0,29.99,NE,49,0.0,-999.0,41,-99.99,,,0.00,weatherlink.com 1.10,2014-03-12 17:08:00,
2014-03-12 10:23:00,55.3,33.0,30.00,NE,44,0.0,-999.0,43,-99.99,,,0.00,weatherlink.com 1.10,2014-03-12 17:23:00,
2014-03-12 10:38:00,55.9,31.0,30.00,NNE,14,3.0,-999.0,39,-99.99,,,0.00,weatherlink.com 1.10,2014-03-12 17:38:00,
2014-03-12 10:53:00,56.2,31.0,30.00,NNE,14,3.0,-999.0,39,-99.99,,,0.00,weatherlink.com 1.10,2014-03-12 17:53:00,
2014-03-12 11:08:00,57.0,31.0,30.00,ENE,58,6.0,-999.0,37,-99.99,,,0.00,weatherlink.com 1.10,2014-03-12 18:08:00,
2014-03-12 11:23:00,57.5,33.0,30.00,ENE,58,12.0,-999.0,39,-99.99,,,0.00,weatherlink.com 1.10,2014-03-12 18:23:00,
2014-03-12 11:38:00,58.1,31.0,30.00,NE,41,4.0,-999.0,36,-99.99,,,0.00,weatherlink.com 1.10,2014-03-12 18:38:00,
2014-03-12 11:53:00,57.8,30.0,30.00,NE,45,6.0,-999.0,35,-99.99,,,0.00,weatherlink.com 1.10,2014-03-12 18:53:00,
2014-03-12 12:08:00,58.3,30.0,30.01,NE,38,7.0,-999.0,34,-99.99,,,0.00,weatherlink.com 1.10,2014-03-12 19:08:00,
2014-03-12 12:23:00,58.3,29.0,30.01,NNE,14,4.0,-999.0,33,-99.99,,,0.00,weatherlink.com 1.10,2014-03-12 19:23:00,
2014-03-12 12:38:00,59.0,30.0,30.00,North,8,2.0,-999.0,34,-99.99,,,0.00,weatherlink.com 1.10,2014-03-12 19:38:00,
2014-03-12 16:00:00,62.0,26.0,29.97,North,4,8.0,-999.0,25,-99.99,,,0.00,weatherlink.com 1.10,2014-03-12 23:00:00,
2014-03-12 16:09:00,62.1,28.0,29.97,North,8,6.0,-999.0,27,-99.99,,,0.00,weatherlink.com 1.10,2014-03-12 23:09:00,
2014-03-12 16:24:00,61.8,25.0,29.97,North,11,6.0,-999.0,25,-99.99,,,0.00,weatherlink.com 1.10,2014-03-12 23:24:00,
2014-03-12 16:39:00,61.8,25.0,29.96,NNE,21,11.0,-999.0,25,-99.99,,,0.00,weatherlink.com 1.10,2014-03-12 23:39:00,
2014-03-12 16:54:00,61.6,26.0,29.96,North,7,10.0,-999.0,26,-99.99,,,0.00,weatherlink.com 1.10,2014-03-12 23:54:00,
2014-03-12 17:09:00,61.3,26.0,29.96,NE,47,13.0,-999.0,26,-99.99,,,0.00,weatherlink.com 1.10,2014-03-13 00:09:00,
2014-03-12 17:24:00,61.3,28.0,29.95,North,4,13.0,-999.0,28,-99.99,,,0.00,weatherlink.com 1.10,2014-03-13 00:24:00,
2014-03-12 17:39:00,60.9,27.0,29.95,North,10,8.0,-999.0,28,-99.99,,,0.00,weatherlink.com 1.10,2014-03-13 00:39:00,
2014-03-12 17:54:00,60.9,26.0,29.95,NNE,14,11.0,-999.0,26,-99.99,,,0.00,weatherlink.com 1.10,2014-03-13 00:54:00,
2014-03-12 18:09:00,60.5,25.0,29.95,NNE,17,11.0,-999.0,26,-99.99,,,0.00,weatherlink.com 1.10,2014-03-13 01:09:00,
2014-03-12 18:24:00,60.2,24.0,29.95,NNE,27,5.0,-999.0,25,-99.99,,,0.00,weatherlink.com 1.10,2014-03-13 01:24:00,
2014-03-12 18:39:00,59.9,25.0,29.95,North,0,6.0,-999.0,26,-99.99,,,0.00,weatherlink.com 1.10,2014-03-13 01:39:00,
2014-03-12 18:54:00,59.6,26.0,29.95,NNE,16,7.0,-999.0,28,-99.99,,,0.00,weatherlink.com 1.10,2014-03-13 01:54:00,
2014-03-12 19:09:00,59.2,26.0,29.96,North,11,8.0,-999.0,28,-99.99,,,0.00,weatherlink.com 1.10,2014-03-13 02:09:00,
2014-03-12 19:24:00,58.9,25.0,29.96,NE,35,6.0,-999.0,27,-99.99,,,0.00,weatherlink.com 1.10,2014-03-13 02:24:00,
2014-03-12 19:39:00,58.9,25.0,29.97,NNE,13,5.0,-999.0,27,-99.99,,,0.00,weatherlink.com 1.10,2014-03-13 02:39:00,
2014-03-12 19:54:00,58.7,25.0,29.97,NNE,24,5.0,-999.0,27,-99.99,,,0.00,weatherlink.com 1.10,2014-03-13 02:54:00,
2014-03-12 20:09:00,58.4,25.0,29.97,NNE,20,4.0,-999.0,28,-99.99,,,0.00,weatherlink.com 1.10,2014-03-13 03:09:00,
2014-03-12 20:24:00,58.1,26.0,29.97,NNE,24,4.0,-999.0,29,-99.99,,,0.00,weatherlink.com 1.10,2014-03-13 03:24:00,
2014-03-12 20:39:00,58.3,27.0,29.98,NNE,31,6.0,-999.0,30,-99.99,,,0.00,weatherlink.com 1.10,2014-03-13 03:39:00,
2014-03-12 20:54:00,58.0,27.0,29.98,NNE,13,6.0,-999.0,30,-99.99,,,0.00,weatherlink.com 1.10,2014-03-13 03:54:00,
2014-03-12 21:09:00,57.6,25.0,29.99,NNE,13,6.0,-999.0,29,-99.99,,,0.00,weatherlink.com 1.10,2014-03-13 04:09:00,
2014-03-12 21:24:00,57.3,25.0,29.98,NNE,30,5.0,-999.0,29,-99.99,,,0.00,weatherlink.com 1.10,2014-03-13 04:24:00,
2014-03-12 21:39:00,57.5,26.0,29.99,NNE,25,5.0,-999.0,30,-99.99,,,0.00,weatherlink.com 1.10,2014-03-13 04:39:00,
2014-03-12 21:54:00,57.2,24.0,29.99,NNE,25,3.0,-999.0,28,-99.99,,,0.00,weatherlink.com 1.10,2014-03-13 04:54:00,
2014-03-12 22:09:00,56.9,25.0,29.99,NNE,13,5.0,-999.0,29,-99.99,,,0.00,weatherlink.com 1.10,2014-03-13 05:09:00,
2014-03-12 22:24:00,56.5,24.0,29.99,NNE,14,3.0,-999.0,29,-99.99,,,0.00,weatherlink.com 1.10,2014-03-13 05:24:00,
2014-03-12 22:39:00,56.5,24.0,29.99,North,1,3.0,-999.0,28,-99.99,,,0.00,weatherlink.com 1.10,2014-03-13 05:39:00,
2014-03-12 22:54:00,56.6,24.0,29.99,North,4,3.0,-999.0,28,-99.99,,,0.00,weatherlink.com 1.10,2014-03-13 05:54:00,
2014-03-12 23:09:00,56.2,25.0,29.99,NNE,17,6.0,-999.0,30,-99.99,,,0.00,weatherlink.com 1.10,2014-03-13 06:09:00,
2014-03-12 23:24:00,55.9,25.0,29.98,North,10,6.0,-999.0,30,-99.99,,,0.00,weatherlink.com 1.10,2014-03-13 06:24:00,